This demonstration page uses our WeatherBlox Daily Observations layout. Learn more.

Left ArrowRight Arrow

39.92423, -83.80882

Hourly Observations for May 16, 2020

Temp ( °F °C ) Dew Point ( °F °C ) Humidity (%) Winds ( mph kmh ) Pressure ( in mb ) Visibility ( mi km ) Precip ( " mm )
12:42 am 00:42 Cloudy with Fog 57 14 57 14 100 100 Calm 30.04 1017 0.5 0.80467 0 0
12:53 am 00:53 Cloudy with Fog 57 14 57 14 100 100 Calm 30.04 1017 0.25 0.402335 0 0
12:56 am 00:56 Cloudy with Fog 58 14.4 58 14.4 100 100 Calm 30.03 1017 0.25 0.402335 0 0
1:44 am 01:44 Cloudy with Fog 57 14 57 14 100 100 Calm 30.03 1017 0.5 0.80467 0 0
1:51 am 01:51 Cloudy with Fog 55 13 55 13 100 100 Calm 30.03 1017 0.25 0.402335 0 0
1:56 am 01:56 Cloudy with Fog 54 12.2 54 12.2 100 100 Calm 30.02 1017 0.25 0.402335 0 0
2:12 am 02:12 Cloudy with Fog 54 12 54 12 100 100 ENE 7 11 30.03 1017 0.5 0.80467 0 0
2:36 am 02:36 Cloudy with Fog 55 13 55 13 100 100 E 3 6 30.02 1017 0.25 0.402335 0 0
2:44 am 02:44 Cloudy with Fog 55 13 55 13 100 100 E 3 6 30.03 1017 0.5 0.80467 0 0
2:54 am 02:54 Mostly Cloudy with Mist and Fog 54 12 54 12 100 100 Calm 30.03 1017 1 1.60934 0 0
2:56 am 02:56 Mostly Cloudy with Mist and Fog 55 12.8 55 12.8 100 100 E 3 6 30.03 1017 1 1.60934 0 0
3:11 am 03:11 Mostly Cloudy with Mist and Fog 55 13 55 13 100 100 E 6 9 30.03 1017 0.75 1.207005 0 0
3:23 am 03:23 Mostly Cloudy with Mist and Fog 54 12 54 12 100 100 ESE 5 7 30.03 1017 1 1.60934 0 0
3:27 am 03:27 Mostly Cloudy with Fog 55 13 55 13 100 100 E 3 6 30.03 1017 0.5 0.80467 0 0
3:56 am 03:56 Cloudy with Fog 55 12.8 55 12.8 100 100 Calm 30.03 1017 0.25 0.402335 0 0
4:22 am 04:22 Cloudy with Fog 55 13 55 13 100 100 E 3 6 30.03 1017 0.5 0.80467 0 0
4:56 am 04:56 Mostly Cloudy with Fog 55 12.8 55 12.8 100 100 E 3 6 30.03 1017 0.5 0.80467 0 0
5:14 am 05:14 Clear with Fog 55 13 55 13 100 100 Calm 30.04 1017 0.5 0.80467 0 0
5:35 am 05:35 Clear with Mist and Fog 55 13 55 13 100 100 ESE 3 6 30.04 1017 0.75 1.207005 0 0
5:44 am 05:44 Clear with Fog 55 13 55 13 100 100 ESE 3 6 30.05 1018 0.5 0.80467 0 0
5:56 am 05:56 Clear with Mist and Fog 55 12.8 55 12.8 100 100 ESE 3 6 30.05 1018 0.75 1.207005 0 0
6:06 am 06:06 Mostly Clear with Fog 55 13 55 13 100 100 ESE 3 6 30.05 1018 0.5 0.80467 0 0
6:24 am 06:24 Partly Cloudy with Mist and Fog 55 13 55 13 100 100 E 3 6 30.06 1018 1 1.60934 0 0
6:29 am 06:29 Partly Cloudy with Mist and Fog 55 13 55 13 100 100 E 3 6 30.06 1018 2 3.21868 0 0
6:40 am 06:40 Partly Cloudy with Mist and Fog 55 13 55 13 100 100 E 5 7 30.06 1018 3 4.82802 0 0
6:56 am 06:56 Sunny with Mist and Fog 56 13.3 56 13.3 100 100 E 5 7 30.06 1018 4 6.43736 0 0
7:56 am 07:56 Cloudy with Mist and Fog 59 15 59 15 100 100 E 5 7 30.08 1019 5 8.0467 0 0
8:56 am 08:56 Sunny 61 16.1 61 16.1 100 100 ESE 8 13 30.1 1019 8 12.87472 0 0
9:56 am 09:56 Sunny 64 17.8 64 17.8 100 100 ESE 13 20 30.1 1019 10 16.0934 0 0
10:56 am 10:56 Mostly Sunny 68 20 66 18.9 93 93 ESE 9 15 30.1 1019 10 16.0934 0 0
11:56 am 11:56 Mostly Sunny 70 21.1 63 17.2 79 79 E 13 20 30.09 1019 10 16.0934 0 0
12:29 pm 12:29 Mostly Cloudy 70 21 64 18 83 83 ESE 12 19 30.07 1018 10 16.0934 0 0
12:56 pm 12:56 Partly Cloudy 72 22.2 64 17.8 76 76 ESE 9 15 30.09 1019 10 16.0934 0 0
1:56 pm 13:56 Mostly Sunny 73 22.8 64 17.8 74 74 E 9 15 30.08 1019 10 16.0934 0 0
2:56 pm 14:56 Mostly Cloudy 75 23.9 64 17.8 69 69 ENE 13 20 30.06 1018 10 16.0934 0 0
3:56 pm 15:56 Cloudy 73 22.8 62 16.7 69 69 E 12 19 30.06 1018 10 16.0934 0 0
4:56 pm 16:56 Cloudy 73 22.8 61 16.1 66 66 E 13 20 30.05 1018 10 16.0934 0 0
5:56 pm 17:56 Cloudy with Light Rain 71 21.7 63 17.2 76 76 ESE 10 17 30.04 1017 10 16.0934 0.001 0.001
6:56 pm 18:56 Cloudy 72 22.2 62 16.7 71 71 E 12 19 30.02 1017 10 16.0934 0.001 0.001
7:56 pm 19:56 Mostly Sunny 70 21.1 61 16.1 73 73 E 10 17 30.02 1017 10 16.0934 0 0
8:56 pm 20:56 Cloudy 67 19.4 61 16.1 81 81 E 8 13 30.03 1017 10 16.0934 0.02 0.508
9:56 pm 21:56 Clear 64 17.8 61 16.1 90 90 E 7 11 30.04 1017 10 16.0934 0.02 0.508
10:56 pm 22:56 Clear 64 17.8 62 16.7 93 93 E 9 15 30.04 1017 10 16.0934 0.01 0.254
11:56 pm 23:56 Clear 65 18.3 61 16.1 87 87 E 9 15 30.03 1017 10 16.0934 0 0

Powered by AerisWeather